TimeCDT,TemperatureF,Dew PointF,Humidity,Sea Level PressureIn,VisibilityMPH,Wind Direction,Wind SpeedMPH,Gust SpeedMPH,PrecipitationIn,Events,Conditions,WindDirDegrees,DateUTC
12:53 AM,28.9,23.0,78,30.34,10.0,Calm,Calm,-,N/A,,Clear,0,2012-10-29 05:53:00
1:53 AM,27.0,21.9,81,30.33,10.0,Calm,Calm,-,N/A,,Clear,0,2012-10-29 06:53:00
2:53 AM,28.0,23.0,81,30.33,10.0,Calm,Calm,-,N/A,,Partly Cloudy,0,2012-10-29 07:53:00
3:53 AM,28.9,24.1,82,30.33,10.0,Calm,Calm,-,N/A,,Overcast,0,2012-10-29 08:53:00
4:53 AM,30.0,24.1,79,30.32,10.0,Calm,Calm,-,N/A,,Mostly Cloudy,0,2012-10-29 09:53:00
5:53 AM,30.0,25.0,82,30.32,10.0,Calm,Calm,-,N/A,,Partly Cloudy,0,2012-10-29 10:53:00
6:53 AM,32.0,26.1,79,30.33,10.0,Calm,Calm,-,N/A,,Overcast,0,2012-10-29 11:53:00
7:53 AM,33.1,27.0,78,30.33,10.0,SE,5.8,-,N/A,,Overcast,140,2012-10-29 12:53:00
8:53 AM,34.0,28.0,79,30.34,10.0,SE,6.9,-,N/A,,Overcast,130,2012-10-29 13:53:00
9:53 AM,36.0,28.9,76,30.34,10.0,SE,5.8,-,N/A,,Overcast,130,2012-10-29 14:53:00
10:53 AM,37.9,30.0,73,30.34,10.0,SE,10.4,-,N/A,,Overcast,140,2012-10-29 15:53:00
11:53 AM,41.0,30.9,67,30.34,10.0,SE,8.1,-,N/A,,Overcast,140,2012-10-29 16:53:00
12:53 PM,46.9,33.1,59,30.30,10.0,SE,11.5,-,N/A,,Overcast,140,2012-10-29 17:53:00
1:53 PM,46.9,30.9,54,30.28,10.0,SSE,10.4,-,N/A,,Mostly Cloudy,150,2012-10-29 18:53:00
2:53 PM,48.9,30.0,48,30.25,10.0,SSE,15.0,-,N/A,,Scattered Clouds,150,2012-10-29 19:53:00
3:53 PM,48.9,30.0,48,30.23,10.0,SSE,11.5,19.6,N/A,,Partly Cloudy,150,2012-10-29 20:53:00
4:53 PM,48.9,28.9,46,30.22,10.0,SSE,11.5,-,N/A,,Clear,150,2012-10-29 21:53:00
5:53 PM,46.0,27.0,47,30.22,10.0,ESE,8.1,-,N/A,,Clear,120,2012-10-29 22:53:00
6:53 PM,41.0,27.0,57,30.24,10.0,SE,4.6,-,N/A,,Clear,130,2012-10-29 23:53:00
7:53 PM,37.9,27.0,65,30.24,10.0,Calm,Calm,-,N/A,,Clear,0,2012-10-30 00:53:00
8:53 PM,34.0,27.0,75,30.24,10.0,East,3.5,-,N/A,,Clear,100,2012-10-30 01:53:00
9:53 PM,35.1,27.0,72,30.24,10.0,Calm,Calm,-,N/A,,Clear,0,2012-10-30 02:53:00
10:53 PM,32.0,26.1,79,30.23,10.0,Calm,Calm,-,N/A,,Clear,0,2012-10-30 03:53:00
11:53 PM,28.9,25.0,85,30.21,10.0,Calm,Calm,-,N/A,,Clear,0,2012-10-30 04:53:00